Location: Cabeza de los Veneras
(40.2000°N, 5.2000°W)
Time: 02:08:47
(UTC+00:00)

IRS-1C Rocket - Visible Passes

Search period start: 19 July 2024 00:00
Search period end: 29 July 2024 00:00
Orbit: 800 x 805 km, 98.8° (Epoch: 18 July)

Date Brightness Start Highest point End Pass type
(mag) Time Alt. Az. Time Alt. Az. Time Alt. Az.
19 Jul 4.3 21:34:37 20° S 21:38:19 67° WSW 21:43:35 10° NNW visible
20 Jul 4.1 21:08:28 18° SSE 21:12:27 71° ENE 21:17:41 10° N visible
20 Jul 6.5 22:50:06 10° WSW 22:52:39 14° W 22:55:12 10° WNW visible
21 Jul 4.7 20:42:17 13° SE 20:46:40 41° ENE 20:51:35 10° N visible
21 Jul 5.9 22:23:16 14° SW 22:26:29 24° W 22:30:43 10° NW visible
22 Jul 5.4 20:16:49 10° ESE 20:20:59 25° ENE 20:25:11 10° NNE visible
22 Jul 5.1 21:57:06 19° SSW 22:00:26 42° W 22:05:25 10° NNW visible
23 Jul 4.2 21:30:57 21° S 21:34:28 74° WSW 21:39:46 10° NNW visible
24 Jul 4.2 21:04:47 18° SSE 21:08:37 65° ENE 21:13:51 10° N visible
24 Jul 6.4 22:45:50 10° SW 22:48:45 15° W 22:51:42 10° WNW visible
25 Jul 4.8 20:38:37 13° SE 20:42:51 38° ENE 20:47:41 10° N visible
25 Jul 5.8 22:19:36 16° SW 22:22:37 26° W 22:27:00 10° NW visible
26 Jul 5.5 20:13:11 10° ESE 20:17:12 23° ENE 20:21:14 10° NNE visible
26 Jul 4.9 21:53:27 22° SSW 21:56:35 46° W 22:01:38 10° NNW visible
27 Jul 4.1 21:27:17 23° S 21:30:38 80° WSW 21:35:56 10° NNW visible
28 Jul 4.2 21:01:08 19° SE 21:04:47 59° ENE 21:09:59 10° N visible
28 Jul 6.3 22:42:07 12° SW 22:44:52 16° W 22:48:08 10° NW visible
